Location: Hilderbrand
(37.5756°N, 89.8540°W)
Time: 12:19:28
(UTC+00:00)

RESURS DK-1 - Pass Details

Date: 15 November 2025
Orbit: 524 x 535 km, 69.9° (Epoch: 05 December)

Event Time Altitude Azimuth Distance (km) Brightness Sun altitude
Rises 23:48:50 0° 347° (NNW) 2,693 5.8 -12.2°
Reaches altitude 10° 23:51:14 10° 359° (N) 1,798 4.8 -12.7°
Maximum altitude 23:54:45 29° 60° (ENE) 1,005 3.1 -13.3°
Enters shadow 23:56:46 19° 106° (ESE) 1,316 3.7 -13.7°
